Hourly Weather Maun

Today, 13 July, Monday

Time Temperature Precipitation Wind Pressure Humidity
00:00 +8°C° 0 mm 2 mps 684 mmHg 19%
01:00 +8°C° 0 mm 2 mps 684 mmHg 19%
02:00 +7°C° 0 mm 2 mps 683 mmHg 20%
03:00 +6°C° 0 mm 2 mps 683 mmHg 25%
04:00 +6°C° 0 mm 2 mps 683 mmHg 29%
05:00 +5°C° 0 mm 2 mps 683 mmHg 34%
06:00 +5°C° 0 mm 2 mps 683 mmHg 36%
07:00 +7°C° 0 mm 1 mps 683 mmHg 37%
08:00 +8°C° 0 mm 1 mps 684 mmHg 40%
09:00 +12°C° 0 mm 1 mps 685 mmHg 32%
10:00 +18°C° 0 mm 1 mps 686 mmHg 23%
11:00 +22°C° 0 mm 1 mps 686 mmHg 15%
12:00 +24°C° 0 mm 1 mps 686 mmHg 13%
13:00 +26°C° 0 mm 1 mps 685 mmHg 10%
14:00 +28°C° 0 mm 1 mps 685 mmHg 8%
15:00 +27°C° 0 mm 1 mps 684 mmHg 8%
16:00 +27°C° 0 mm 1 mps 683 mmHg 8%
17:00 +26°C° 0 mm 1 mps 683 mmHg 8%
18:00 +23°C° 0 mm 1 mps 682 mmHg 11%
19:00 +19°C° 0 mm 1 mps 682 mmHg 13%
20:00 +15°C° 0 mm 1 mps 682 mmHg 15%
21:00 +14°C° 0 mm 1 mps 682 mmHg 16%
22:00 +13°C° 0 mm 1 mps 682 mmHg 17%
23:00 +12°C° 0 mm 1 mps 682 mmHg 18%

Tomorrow, 14 July, Tuesday

Time Temperature Precipitation Wind Pressure Humidity
00:00 +11°C° 0 mm 1 mps 681 mmHg 19%
01:00 +11°C° 0 mm 1 mps 681 mmHg 20%
02:00 +10°C° 0 mm 1 mps 681 mmHg 21%
03:00 +10°C° 0 mm 1 mps 681 mmHg 21%
04:00 +9°C° 0 mm 1 mps 681 mmHg 22%
05:00 +9°C° 0 mm 1 mps 681 mmHg 23%
06:00 +10°C° 0 mm 1 mps 682 mmHg 22%
07:00 +10°C° 0 mm 1 mps 682 mmHg 22%
08:00 +11°C° 0 mm 1 mps 683 mmHg 21%
09:00 +15°C° 0 mm 2 mps 684 mmHg 18%
10:00 +19°C° 0 mm 2 mps 685 mmHg 14%
11:00 +23°C° 0 mm 2 mps 685 mmHg 11%
12:00 +25°C° 0 mm 3 mps 685 mmHg 9%
13:00 +27°C° 0 mm 3 mps 685 mmHg 8%
14:00 +29°C° 0 mm 4 mps 685 mmHg 7%
15:00 +28°C° 0 mm 4 mps 684 mmHg 7%
16:00 +27°C° 0 mm 4 mps 684 mmHg 8%
17:00 +26°C° 0 mm 4 mps 684 mmHg 8%
18:00 +22°C° 0 mm 4 mps 684 mmHg 10%
19:00 +19°C° 0 mm 4 mps 684 mmHg 12%
20:00 +14°C° 0 mm 3 mps 684 mmHg 14%
21:00 +14°C° 0 mm 3 mps 684 mmHg 18%
22:00 +13°C° 0 mm 4 mps 685 mmHg 21%
23:00 +13°C° 0 mm 4 mps 685 mmHg 25%

Day after tomorrow, 15 July, Wednesday

Time Temperature Precipitation Wind Pressure Humidity
00:00 +12°C° 0 mm 4 mps 685 mmHg 28%
01:00 +11°C° 0 mm 4 mps 685 mmHg 31%
02:00 +10°C° 0 mm 4 mps 685 mmHg 33%
03:00 +8°C° 0 mm 4 mps 685 mmHg 35%
04:00 +8°C° 0 mm 3 mps 685 mmHg 36%
05:00 +7°C° 0 mm 3 mps 685 mmHg 38%
06:00 +6°C° 0 mm 4 mps 686 mmHg 38%
07:00 +6°C° 0 mm 4 mps 687 mmHg 38%
08:00 +6°C° 0 mm 4 mps 688 mmHg 39%
09:00 +9°C° 0 mm 5 mps 688 mmHg 33%
10:00 +14°C° 0 mm 5 mps 689 mmHg 27%
11:00 +17°C° 0 mm 5 mps 689 mmHg 21%
12:00 +20°C° 0 mm 5 mps 689 mmHg 18%
13:00 +22°C° 0 mm 5 mps 689 mmHg 15%
14:00 +25°C° 0 mm 5 mps 688 mmHg 13%
15:00 +25°C° 0 mm 5 mps 688 mmHg 13%
16:00 +23°C° 0 mm 5 mps 687 mmHg 14%
17:00 +23°C° 0 mm 5 mps 687 mmHg 14%
18:00 +21°C° 0 mm 4 mps 687 mmHg 25%
19:00 +18°C° 0 mm 4 mps 687 mmHg 35%
20:00 +15°C° 0 mm 4 mps 687 mmHg 45%
21:00 +14°C° 0 mm 5 mps 687 mmHg 50%
22:00 +13°C° 0 mm 6 mps 688 mmHg 55%
23:00 +13°C° 0 mm 6 mps 688 mmHg 60%

16 July, Thursday

Time Temperature Precipitation Wind Pressure Humidity
00:00 +11°C° 0 mm 6 mps 688 mmHg 63%
01:00 +10°C° 0 mm 6 mps 688 mmHg 65%
02:00 +9°C° 0 mm 6 mps 688 mmHg 67%
03:00 +9°C° 0 mm 5 mps 688 mmHg 70%
04:00 +8°C° 0 mm 5 mps 688 mmHg 73%
05:00 +7°C° 0 mm 5 mps 688 mmHg 76%
06:00 +7°C° 0 mm 5 mps 689 mmHg 76%
07:00 +7°C° 0 mm 5 mps 690 mmHg 75%
08:00 +7°C° 0 mm 5 mps 691 mmHg 75%
09:00 +10°C° 0 mm 5 mps 691 mmHg 65%
10:00 +13°C° 0 mm 5 mps 692 mmHg 54%
11:00 +16°C° 0 mm 5 mps 692 mmHg 44%
12:00 +17°C° 0 mm 5 mps 691 mmHg 39%
13:00 +20°C° 0 mm 4 mps 691 mmHg 35%
14:00 +22°C° 0 mm 4 mps 690 mmHg 31%
15:00 +21°C° 0 mm 4 mps 689 mmHg 31%
16:00 +21°C° 0 mm 4 mps 689 mmHg 30%
17:00 +21°C° 0 mm 5 mps 689 mmHg 30%
18:00 +19°C° 0 mm 4 mps 689 mmHg 33%
19:00 +15°C° 0 mm 4 mps 689 mmHg 36%
20:00 +13°C° 0 mm 4 mps 689 mmHg 38%
21:00 +12°C° 0 mm 4 mps 689 mmHg 42%
22:00 +12°C° 0 mm 5 mps 689 mmHg 46%
23:00 +10°C° 0 mm 5 mps 689 mmHg 50%

17 July, Friday

Time Temperature Precipitation Wind Pressure Humidity
00:00 +9°C° 0 mm 5 mps 689 mmHg 55%
01:00 +8°C° 0 mm 5 mps 689 mmHg 60%
02:00 +7°C° 0 mm 4 mps 689 mmHg 65%
03:00 +6°C° 0 mm 4 mps 689 mmHg 69%
04:00 +5°C° 0 mm 4 mps 689 mmHg 74%
05:00 +4°C° 0 mm 3 mps 689 mmHg 78%
06:00 +5°C° 0 mm 4 mps 689 mmHg 77%
07:00 +5°C° 0 mm 4 mps 689 mmHg 77%
08:00 +5°C° 0 mm 4 mps 690 mmHg 77%
09:00 +8°C° 0 mm 4 mps 690 mmHg 65%
10:00 +12°C° 0 mm 4 mps 690 mmHg 54%
11:00 +14°C° 0 mm 4 mps 691 mmHg 43%
12:00 +18°C° 0 mm 4 mps 690 mmHg 37%
13:00 +20°C° 0 mm 4 mps 690 mmHg 30%
14:00 +22°C° 0 mm 4 mps 689 mmHg 23%
15:00 +22°C° 0 mm 4 mps 689 mmHg 23%
16:00 +22°C° 0 mm 4 mps 688 mmHg 22%
17:00 +22°C° 0 mm 4 mps 688 mmHg 21%
18:00 +19°C° 0 mm 4 mps 687 mmHg 24%
19:00 +16°C° 0 mm 3 mps 687 mmHg 27%
20:00 +12°C° 0 mm 3 mps 687 mmHg 31%
21:00 +12°C° 0 mm 3 mps 687 mmHg 35%
22:00 +11°C° 0 mm 3 mps 687 mmHg 40%
23:00 +11°C° 0 mm 4 mps 687 mmHg 44%

18 July, Saturday

Time Temperature Precipitation Wind Pressure Humidity
00:00 +10°C° 0 mm 4 mps 687 mmHg 50%
01:00 +9°C° 0 mm 3 mps 687 mmHg 55%
02:00 +9°C° 0 mm 3 mps 687 mmHg 60%
03:00 +8°C° 0 mm 3 mps 687 mmHg 63%
04:00 +7°C° 0 mm 3 mps 687 mmHg 67%
05:00 +5°C° 0 mm 3 mps 687 mmHg 70%
06:00 +7°C° 0 mm 3 mps 687 mmHg 70%
07:00 +7°C° 0 mm 3 mps 688 mmHg 70%
08:00 +7°C° 0 mm 3 mps 689 mmHg 69%
09:00 +10°C° 0 mm 4 mps 689 mmHg 59%
10:00 +14°C° 0 mm 4 mps 689 mmHg 48%
11:00 +18°C° 0 mm 4 mps 690 mmHg 38%
12:00 +20°C° 0 mm 4 mps 689 mmHg 33%
13:00 +22°C° 0 mm 4 mps 688 mmHg 27%
14:00 +25°C° 0 mm 4 mps 688 mmHg 22%
15:00 +25°C° 0 mm 4 mps 687 mmHg 21%
16:00 +25°C° 0 mm 4 mps 687 mmHg 20%
17:00 +23°C° 0 mm 4 mps 686 mmHg 20%
18:00 +20°C° 0 mm 3 mps 686 mmHg 23%
19:00 +18°C° 0 mm 3 mps 686 mmHg 27%
20:00 +14°C° 0 mm 3 mps 686 mmHg 30%
21:00 +13°C° 0 mm 3 mps 686 mmHg 32%
22:00 +12°C° 0 mm 3 mps 686 mmHg 33%
23:00 +12°C° 0 mm 3 mps 686 mmHg 35%
Show more